Regional Weather Roundup
Issued by NWS

Home | Current Version | Previous Version | Graphics & Text | Print | Product List | Glossary On
Versions: 1 2 3 4 5 6 7 8 9 10 11 12 13 14 15 16 17 18 19 20 21 22 23 24 25 26 27 28 29 30 31 32 33 34 35 36 37 38 39 40 41 42 43 44 45 46 47 48 49 50
087
ASUS43 KDMX 232301
RWRIA

WEATHER ROUNDUP FOR IOWA
NATIONAL WEATHER SERVICE DES MOINES IA
600 PM CDT THU MAR 23 2017

NOTE: "FAIR" INDICATES FEW OR NO CLOUDS BELOW 12,000 FEET WITH NO
SIGNIFICANT WEATHER AND/OR OBSTRUCTIONS TO VISIBILITY.

* - THESE STATIONS ARE NOT NWS STATIONS...THUS NOT UNDER NWS
QUALITY CONTROL.  THEY ALSO DO NOT REPORT WEATHER SUCH
AS PRECIPITATION OR FOG.

IAZ001>003-012>014-020>022-031>034-043>046-240000-
   NORTHWEST IOWA

CITY           SKY/WX    TMP DP  RH WIND       PRES   REMARKS
CARROLL *      CLOUDY    57  39  51 SE26G32   29.68F
CHEROKEE *     CLOUDY    53  44  71 SE13G20   29.69F
DENISON *      MOSUNNY   59  43  55 SE12      29.69S
LE MARS *      CLOUDY    57  45  62 SE8       29.69F
ORANGE CITY *  CLOUDY    55  46  71 S8        29.69R
SHELDON *      CLOUDY    46  46 100 SE12      29.70R
SIOUX CITY     CLOUDY    59  45  59 SE13      29.67S
SPENCER        CLOUDY    46  39  76 E9        29.72R
STORM LAKE *   CLOUDY    50  41  71 SE17      29.71F
$$

IAZ055>058-069>071-079>083-090>094-240000-
   SOUTHWEST IOWA

CITY           SKY/WX    TMP DP  RH WIND       PRES   REMARKS
ATLANTIC *     CLOUDY    73  52  46 S16G26    29.68F
AUDUBON *      SUNNY     63  41  45 SE17G23   29.72F
CLARINDA *     PTSUNNY   77  54  44 S16G25    29.71F
COUNCIL BLFS * MOSUNNY   73  54  49 S13G23    29.67S
CRESTON *      PTSUNNY   72  50  46 S21       29.74F
HARLAN  *      MOSUNNY   66  43  42 SE13      29.72S
LAMONI         SUNNY     77  50  38 S20G30    29.77F
RED OAK *      MOSUNNY   75  52  43 S24G35    29.68S
SHENANDOAH *   MOSUNNY   77  52  41 S24G35    29.67S
$$

IAZ047>049-059>061-072>074-084-240000-
   CENTRAL IOWA

CITY           SKY/WX    TMP DP  RH WIND       PRES   REMARKS
AMES           CLOUDY    50  38  63 E16G23    29.82F
ANKENY *       CLOUDY    52  37  58 E12G17    29.82F
BOONE *        CLOUDY    50  36  57 SE23G33   29.79F
CHARITON *     SUNNY     66  39  37 SE16G22   29.79F
DES MOINES     PTSUNNY   57  38  48 E10       29.80
GRINNELL*      CLOUDY    50  37  62 SE18      29.88F
MARSHALLTOWN   CLOUDY    46  37  71 SE18G28   29.85F
NEWTON *       CLOUDY    50  37  62 SE15G26   29.84F
PELLA *        MOSUNNY   54  38  54 SE13G24   29.86F
PERRY *          N/A     56  35  44 E21       29.77F
$$

IAZ004>006-015-016-023>025-035-036-240000-
   NORTH CENTRAL IOWA

CITY           SKY/WX    TMP DP  RH WIND       PRES   REMARKS
ALGONA *       CLOUDY    43  37  81 S16G26    29.77R
CLARION *      PTSUNNY   43  39  87 S20G30    29.82R
ESTHERVILLE    CLOUDY    40  36  86 NE9       29.76F WCI  34
FORT DODGE *   CLOUDY    48  34  57 SE15      29.77R
MASON CITY     PTSUNNY   38  35  89 SE25G38   29.74F WCI  27
FOREST CITY *  RAIN      37  36  93 S14       29.80R WCI  29
WEBSTER CITY * CLOUDY    48  36  61 SE29G37   29.73F
IOWA FALLS *     N/A     47  37  68 SE20      29.85F
$$

IAZ007>011-017>019-026>030-037>042-050>054-066-240000-
   NORTHEAST IOWA

CITY           SKY/WX    TMP DP  RH WIND       PRES   REMARKS
CEDAR RAPIDS   PTSUNNY   43  37  79 SE13      29.94F
CHARLES CITY * CLOUDY    39  39 100 S21G28    29.86F WCI  29
CLINTON *      CLOUDY    41  33  73 SE17      30.03
DECORAH *      LGT RAIN  37  36  93 SE8G14    29.92F WCI  31
DUBUQUE        CLOUDY    39  31  72 S22G33    29.94F WCI  29
MONTICELLO *   CLOUDY    43  36  75 SE17G26   29.94F
WATERLOO       PTSUNNY   41  37  86 SE20G29   29.87F
$$

IAZ064-065-067-068-078-240000-
   EAST CENTRAL IOWA

CITY           SKY/WX    TMP DP  RH WIND       PRES   REMARKS
DAVENPORT      PTSUNNY   44  34  67 SE20      30.00F
IOWA CITY      CLOUDY    47  37  68 SE18G24   29.97F
MUSCATINE *    MOSUNNY   48  37  66 SE15G23   29.98F
QUAD CITIES    MOSUNNY   46  36  68 SE12      30.02S
$$

IAZ062-063-075>077-085>089-095>099-240000-
   SOUTHEAST IOWA

CITY           SKY/WX    TMP DP  RH WIND       PRES   REMARKS
BURLINGTON     MOSUNNY   49  40  71 SE13      29.96F
FAIRFIELD *    CLOUDY    52  37  58 SE13      29.92F
FORT MADISON * SUNNY     52  39  62 SE14G20   29.95S
KEOKUK *       SUNNY     55  39  54 SE10G20   29.93F
OSKALOOSA *      N/A     51  38  60 SE15G21   29.88F
CENTERVILLE *    N/A     64  39  39 SE16      29.85F
OTTUMWA        PTSUNNY   54  37  52 SE17      29.88F
WASHINGTON *   CLOUDY    48  39  71 SE15      29.97F
$$

ABBREVIATIONS USED IN REMARKS
   TC - TEMPERATURES IN CELSIUS
  WCI - WIND CHILL INDEX
   HX - HEAT INDEX
  VSB - VISIBILITY
$$





USA.gov is the U.S. government's official web portal to all federal, state and local government web resources and services.